SCP
0 0 0 -0 -0 -0 0 0 0 0 0 0 0 0 0 0 0 0 0 0 0 0
0 0 0 0 -0 -0 -0 -0 0 0 0 0 0 0 0 0 0 0 0 0 0 0
-0 0 0 0 0 0 -0 -0 -0 -0 -0 0 0 0 0 0 0 0 0 0 0 0
0 0 0 0 0 -0 -0 -0 -0 -0 -0 -0 -0 -0 -0 -0 -0 -0 -0 -0 -0 -0
0 0 0 -0 -0 -0 -0 -0 -0 -0 -0 -0 -0 -0 -0 -0 -0 -0 -0 -0 -0 -0
0 0 0 0 0 -0 -0 -0 -0 -0 -0 -0 -0 -0 -0 -0 -0 -0 -0 -0 -0 0
0 0 0 0 0 0 -0 -0 -0 -0 -0 -0 -0 -0 -0 -0 -0 -0 -0 -0 -0 0
0 0 0 0 0 0 0 0 -0 -0 -0 0 0 -0 -0 -0 -0 -0 -0 -0 0 0
0 0 0 0 0 0 0 0 0 0 0 0 0 0 -0 -0 -0 -0 0 0 0 0
0 0 0 0 0 0 0 0 0 0 0 0 0 0 0 0 0 0 0 0 0 0
0 0 0 0 0 0 0 0 0 0 0 0 0 0 0 0 0 0 0 0 0 0
0 0 0 0 0 0 0 0 0 0 0 0 0 0 0 0 0 0 0 0 0 0
0 0 0 0 0 0 0 0 0 0 0 0 0 0 0 0 0 0 0 0 0 0
0 0 0 0 0 0 0 0 0 0 0 0 0 0 0 0 0 0 0 0 0 0
Wind_Speed_500mb
31 30 27 28 27 27 33 35 36 24 26 26 32 25 21 23 16 16 21 17 13 15
33 31 30 29 27 25 24 24 24 22 25 32 32 25 26 24 19 18 19 19 20 20
38 37 37 34 32 31 28 22 26 30 35 40 37 34 27 23 25 24 28 27 24 25
29 29 29 33 36 37 36 34 34 34 33 31 30 30 29 32 33 26 29 29 27 32
29 29 28 31 34 34 32 33 33 32 33 34 34 32 27 26 28 26 31 35 34 38
25 25 29 31 32 31 31 31 31 28 28 27 27 27 26 26 31 34 38 40 38 39
19 20 21 23 23 20 20 21 21 23 25 26 26 26 28 31 34 38 39 38 37 37
14 15 16 16 17 18 19 19 20 20 22 24 24 27 29 30 32 33 35 35 34 33
10 11 11 13 15 18 18 19 19 20 20 20 25 29 29 28 28 31 28 28 28 28
13 10 9 10 11 15 17 17 18 18 18 20 23 25 24 25 24 25 26 24 23 22
16 15 12 12 12 12 14 17 17 16 18 22 25 23 23 22 21 21 21 21 19 19
20 18 16 15 14 14 12 13 16 16 16 19 22 23 22 23 22 20 19 19 19 18
24 21 18 16 16 17 16 15 15 14 16 18 20 22 22 22 24 23 21 19 18 18
29 25 23 22 21 20 19 18 18 18 17 18 18 20 21 21 22 23 23 22 21 19
Wind_Direction_500mb
85 89 97 114 119 124 126 128 137 148 150 149 158 169 199 166 178 186 173 167 176 173
86 90 94 99 102 106 113 128 148 159 177 181 178 175 158 151 148 146 136 136 135 135
77 80 86 92 92 94 106 128 142 150 149 145 149 150 139 140 133 140 135 133 136 134
77 78 85 90 91 94 97 101 110 118 123 124 127 126 134 134 132 144 138 129 128 123
82 86 88 90 92 90 97 103 105 106 111 114 117 120 126 134 129 131 124 117 117 111
97 98 100 100 98 101 101 101 105 110 114 119 122 125 130 131 129 129 125 123 123 115
111 109 108 108 110 108 108 109 112 116 120 123 126 128 131 131 133 132 129 127 124 120
128 125 120 118 115 118 119 118 116 116 119 121 126 128 129 131 132 135 135 132 130 128
145 132 130 128 128 127 127 126 121 121 119 125 133 130 133 135 142 140 138 139 140 135
166 165 159 149 144 141 137 132 129 127 128 134 141 139 141 144 149 149 152 153 146 143
189 185 183 176 169 169 153 143 140 139 143 152 155 157 158 157 162 167 167 166 166 164
200 198 198 194 186 184 180 169 160 156 157 163 164 167 172 177 178 183 188 188 189 191
208 205 201 207 200 196 192 194 185 178 172 174 180 181 188 192 194 196 204 212 214 216
212 212 210 209 210 209 211 208 203 199 196 193 193 197 201 206 211 214 215 222 230 234
Wind_Speed_850mb
31 30 27 28 27 27 33 35 36 24 26 26 32 25 21 23 16 16 21 17 13 15
33 31 30 29 27 25 24 24 24 22 25 32 32 25 26 24 19 18 19 19 20 20
38 37 37 34 32 31 28 22 26 30 35 40 37 34 27 23 25 24 28 27 24 25
29 29 29 33 36 37 36 34 34 34 33 31 30 30 29 32 33 26 29 29 27 32
29 29 28 31 34 34 32 33 33 32 33 34 34 32 27 26 28 26 31 35 34 38
25 25 29 31 32 31 31 31 31 28 28 27 27 27 26 26 31 34 38 40 38 39
19 20 21 23 23 20 20 21 21 23 25 26 26 26 28 31 34 38 39 38 37 37
14 15 16 16 17 18 19 19 20 20 22 24 24 27 29 30 32 33 35 35 34 33
10 11 11 13 15 18 18 19 19 20 20 20 25 29 29 28 28 31 28 28 28 28
13 10 9 10 11 15 17 17 18 18 18 20 23 25 24 25 24 25 26 24 23 22
16 15 12 12 12 12 14 17 17 16 18 22 25 23 23 22 21 21 21 21 19 19
20 18 16 15 14 14 12 13 16 16 16 19 22 23 22 23 22 20 19 19 19 18
24 21 18 16 16 17 16 15 15 14 16 18 20 22 22 22 24 23 21 19 18 18
29 25 23 22 21 20 19 18 18 18 17 18 18 20 21 21 22 23 23 22 21 19
Wind_Direction_850mb
85 89 97 114 119 124 126 128 137 148 150 149 158 169 199 166 178 186 173 167 176 173
86 90 94 99 102 106 113 128 148 159 177 181 178 175 158 151 148 146 136 136 135 135
77 80 86 92 92 94 106 128 142 150 149 145 149 150 139 140 133 140 135 133 136 134
77 78 85 90 91 94 97 101 110 118 123 124 127 126 134 134 132 144 138 129 128 123
82 86 88 90 92 90 97 103 105 106 111 114 117 120 126 134 129 131 124 117 117 111
97 98 100 100 98 101 101 101 105 110 114 119 122 125 130 131 129 129 125 123 123 115
111 109 108 108 110 108 108 109 112 116 120 123 126 128 131 131 133 132 129 127 124 120
128 125 120 118 115 118 119 118 116 116 119 121 126 128 129 131 132 135 135 132 130 128
145 132 130 128 128 127 127 126 121 121 119 125 133 130 133 135 142 140 138 139 140 135
166 165 159 149 144 141 137 132 129 127 128 134 141 139 141 144 149 149 152 153 146 143
189 185 183 176 169 169 153 143 140 139 143 152 155 157 158 157 162 167 167 166 166 164
200 198 198 194 186 184 180 169 160 156 157 163 164 167 172 177 178 183 188 188 189 191
208 205 201 207 200 196 192 194 185 178 172 174 180 181 188 192 194 196 204 212 214 216
212 212 210 209 210 209 211 208 203 199 196 193 193 197 201 206 211 214 215 222 230 234